Social login voor leden:



METAR EBOS 061150Z 17007KT 7000 NSC 06/02 Q1029 NOSIG
TAF EBOS 061150Z 17007KT 7000 NSC 06/02 Q1029 NOSIG

NZVC is de eerste Belgische vliegclub met een erkenning als 'Approved Training Organisation (ATO)'

Sinds 3 maart 2015 is de Noordzee Vliegclub Oostende erkend door de Europese Unie en de Belgian Civil Aviation Authority als Approved Training Organisation (ATO). Hierbij zijn we de eerste vliegclub in België die voldoet aan de nieuwste en strengste Europese normen inzake organisatie, kwaliteit en veiligheid bij de opleiding tot Privaat Piloot (PPL).

 

Opleiding Piloot
Luchtdopen
Visit Us
Agenda
Opleiding Piloot
Doopvluchten
Visit Us
Volgende activiteit
Noordzee Vliegclub - Nieuwpoortsesteenweg 947 8400 Oostende - Tel 059 30 04 79 - Dit e-mailadres wordt beveiligd tegen spambots. JavaScript dient ingeschakeld te zijn om het te bekijken.

 - Copyright 2016 ©